Location: Litvinovka
(48.6667°N, 34.3500°E)
Time: 16:21:07
(UTC+00:00)

CENTAUR R/B - Pass Details

Date: 18 September 2020
Orbit: 755 x 1433 km, 63.4° (Epoch: 02 October)

Event Time Altitude Azimuth Distance (km) Brightness Sun altitude
Rises 17:36:08 0° 317° (NW) 4,068 7.0 -18.0°
Reaches altitude 10° 17:38:46 10° 320° (NW) 3,190 6.2 -18.4°
Maximum altitude 17:46:39 71° 44° (NE) 1,419 3.2 -19.6°
Enters shadow 17:51:21 31° 121° (ESE) 2,264 3.8 -20.3°
